Regional Weather Roundup
Issued by NWS Charleston, WV

Home | Current Version | Previous Version | Graphics & Text | Print | Product List | Glossary On
Versions: 1 2 3 4 5 6 7 8 9 10 11 12 13 14 15 16 17 18 19 20 21 22 23 24 25 26 27 28 29 30 31 32 33 34 35 36 37 38 39 40 41 42 43 44 45 46 47 48 49 50
000
ASUS41 KRLX 041210
RWRRLX
West Virginia Regional Weather Roundup
National Weather Service Charleston WV
800 AM EDT WED MAY 04 2016

Note: "fair" indicates few or no clouds below 12,000 feet with no
significant weather and/or obstructions to visibility.

WVZ003-041300-
Northern Panhandle of West Virginia

CITY           SKY/WX    TMP DP  RH WIND       PRES   REMARKS
WHEELING       CLOUDY    50  46  86 S3        29.72R
$$

WVZ009-041300-
Northwest West Virginia

CITY           SKY/WX    TMP DP  RH WIND       PRES   REMARKS
PARKERSBURG    PTSUNNY  N/A N/A N/A CALM      29.76S
$$

WVZ006-041300-
Western West Virginia

CITY           SKY/WX    TMP DP  RH WIND       PRES   REMARKS
HUNTINGTON     CLOUDY    52  49  89 W6        29.76S
$$

WVZ015-041300-
West Central West Virginia

CITY           SKY/WX    TMP DP  RH WIND       PRES   REMARKS
CHARLESTON     CLOUDY    53  50  89 W6        29.75S FOG
$$

WVZ022-031-041300-
North Central West Virginia

CITY           SKY/WX    TMP DP  RH WIND       PRES   REMARKS
CLARKSBURG     CLOUDY    52  51  97 S6        29.72S
MORGANTOWN     CLOUDY    52  48  86 CALM      29.73S
$$

WVZ025-035-042-045-041300-
Southern West Virginia

CITY           SKY/WX    TMP DP  RH WIND       PRES   REMARKS
BECKLEY        CLOUDY    48  46  93 SW7       29.76S
LOGAN          NOT AVBL
BLUEFIELD      CLOUDY    46  44  93 W6        29.78R
LEWISBURG      CLOUDY    46  45  97 CALM      29.75S FOG
$$

WVZ047-041300-
Northern Mountains of West Virginia

CITY           SKY/WX    TMP DP  RH WIND       PRES   REMARKS
ELKINS         CLOUDY    50  46  86 CALM      29.74S
$$

WVZ052-041300-
Eastern Panhandle of West Virginia

CITY           SKY/WX    TMP DP  RH WIND       PRES   REMARKS
MARTINSBURG    PTSUNNY   54  54 100 CALM      29.72S FOG
PETERSBURG     CLOUDY    51  50  96 CALM      29.74S
$$



USA.gov is the U.S. government's official web portal to all federal, state and local government web resources and services.